Location: Borz?cin
(51.1714°N, 19.6030°E)
Time: 17:41:49
(UTC+00:00)

Terra - Pass Details

Date: 19 May 2025
Orbit: 690 x 691 km, 98.0° (Epoch: 21 June)

Event Time Altitude Azimuth Distance (km) Brightness Sun altitude
Exits shadow 19:11:33 - 159° (SSE) 2,686 4.3 -5.7°
Reaches altitude 10° 19:12:53 10° 158° (SSE) 2,140 3.8 -5.9°
Maximum altitude 19:17:34 78° 74° (ENE) 714 1.8 -6.4°
Drops below altitude 10° 19:22:17 10° 348° (NNW) 2,156 5.3 -7.0°
Sets 19:24:33 0° 347° (NNW) 3,077 6.2 -7.2°
